Home > Weather > Jessheim > Past weeks

Flag for Norway Past Weather in Jessheim, Norway — Yesterday and Last 2 Weeks

Now
57 °F

Light rain. Partly sunny.


Feels Like: 55 °F
Forecast: 53 / 66 °F
Wind: 10 mph from South

Location: Oslo Gardermoen Airport

Current Time: Jul 28, 2016 at 6:49:10 AM

Latest Report: Jul 28, 2016 at 5:50 AM


Visibility: N/A

Pressure: 29.74 "Hg

Humidity: 94%

Dew Point: 55 °F

Location of JessheimLocation

Past Weather in Jessheim — Graph

°F

Jessheim Temperature Yesterday

Maximum temperature yesterday: 68 °F (at 1:50 PM)
Minimum temperature yesterday: 52 °F (at 3:20 AM)
Average temperature yesterday: 60 °F

High & Low Weather Summary for the Past Weeks

 TemperatureHumidityPressure
High79 °F (Jul 21, 4:50 PM)100% (Jul 13, 7:20 AM)30.12 "Hg (Jul 13, 7:20 AM)
Low46 °F (Jul 19, 4:20 AM)35% (Jul 16, 5:50 PM)29.62 "Hg (Jul 13, 5:20 AM)
Average63 °F68%29.94 "Hg
* Reported Jul 13 5:20 AM — Jul 28 5:50 AM, Jessheim, Weather by CustomWeather, © 2016

Note: Actual official high and low records may vary slightly from our data, if they occured in-between our weather recording intervals... More about our weather records

Advertising

Jessheim Weather History for the Previous 24 Hours

Scroll right to see more
 ConditionsComfort  
Time TempWeatherWind HumidityBarometerVisibility
5:50 AM
Thu, Jul 28
57 °FLight rain. Partly sunny.10 mph94%29.74 "HgN/A
5:20 AM57 °FScattered showers. Partly cloudy.14 mph94%29.74 "HgN/A
4:50 AM59 °FLight rain. Partly cloudy.13 mph88%29.74 "HgN/A
4:20 AM59 °FLight rain. Passing clouds.12 mph88%29.74 "HgN/A
3:50 AM57 °FRain. Passing clouds.9 mph94%29.74 "Hg6 mi
3:20 AM57 °FRain. Passing clouds.9 mph94%29.77 "Hg6 mi
2:50 AM57 °FLight rain. Partly cloudy.9 mph94%29.77 "HgN/A
2:20 AM57 °FLight rain. Passing clouds.10 mph94%29.77 "HgN/A
1:50 AM57 °FLight rain. Partly cloudy.9 mph94%29.77 "HgN/A
12:50 AM57 °FLight rain. Partly cloudy.9 mph88%29.80 "HgN/A
12:20 AM57 °FLight rain. Passing clouds.7 mph88%29.80 "HgN/A
11:50 PM
Wed, Jul 27
57 °FRain. Passing clouds.6 mph82%29.83 "Hg6 mi
11:20 PM59 °FLight rain. Passing clouds.5 mph77%29.83 "HgN/A
10:50 PM61 °FLight rain. Clear.5 mph68%29.83 "HgN/A
10:20 PM61 °FSunny.5 mph68%29.83 "Hg10 mi
9:50 PM61 °FPassing clouds.7 mph68%29.86 "HgN/A
9:20 PM61 °FSunny.8 mph68%29.86 "Hg10 mi
8:50 PM61 °FSunny.9 mph63%29.86 "Hg10 mi
8:20 PM61 °FSunny.9 mph63%29.86 "Hg10 mi
7:50 PM64 °FPassing clouds.12 mph56%29.86 "HgN/A
7:20 PM63 °FPartly sunny.8 mph64%29.86 "HgN/A
6:20 PM63 °FScattered showers. Broken clouds.10 mph64%29.89 "HgN/A
5:50 PM63 °FScattered showers. Partly sunny.9 mph64%29.89 "HgN/A
5:20 PM63 °FSprinkles. Partly sunny.6 mph64%29.89 "HgN/A
4:50 PM63 °FScattered showers. Broken clouds.8 mph64%29.89 "HgN/A
4:20 PM64 °FScattered showers. Broken clouds.12 mph56%29.89 "HgN/A
3:50 PM66 °FBroken clouds.16 mph52%29.92 "HgN/A
3:20 PM66 °FBroken clouds.16 mph52%29.92 "HgN/A
2:50 PM68 °FScattered clouds.17 mph49%29.92 "HgN/A
2:20 PM68 °FScattered clouds.14 mph46%29.92 "HgN/A
1:50 PM68 °FPartly sunny.17 mph46%29.92 "HgN/A
1:20 PM66 °FBroken clouds.14 mph49%29.92 "HgN/A
12:50 PM66 °FBroken clouds.15 mph52%29.95 "HgN/A
12:20 PM66 °FPartly sunny.15 mph46%29.95 "HgN/A
11:50 AM66 °FPartly sunny.14 mph52%29.95 "HgN/A
11:20 AM63 °FBroken clouds.7 mph73%29.95 "HgN/A
10:50 AM63 °FPartly sunny.8 mph73%29.95 "HgN/A
10:20 AM61 °FPartly sunny.8 mph77%29.95 "HgN/A
9:50 AM59 °FBroken clouds.7 mph82%29.95 "HgN/A
9:20 AM57 °FPartly sunny.6 mph88%29.95 "HgN/A
8:50 AM55 °FBroken clouds.5 mph94%29.95 "HgN/A
8:20 AM55 °FPartly sunny.No wind94%29.95 "HgN/A
7:50 AM55 °FPartly sunny.No wind94%29.95 "HgN/A
7:20 AM54 °FPartly sunny.No wind100%29.95 "Hg1 mi
6:50 AM54 °FCool.No wind94%29.95 "Hg1 mi
6:20 AM54 °FFog.1 mph94%29.95 "Hg0 mi
Weather by CustomWeather, © 2016

See weather overviewHow to use our weather pages